Home > Weather > Grande Prairie > Past weeks

Flag for Canada Past Weather in Grande Prairie, Alberta, Canada — Yesterday and Last 2 Weeks

Now
57 °F

Passing clouds.


Feels Like: 57 °F
Forecast: 53 / 79 °F
Wind: 2 mph from North

Location: Grande Prairie

Current Time: Jun 30, 2016 at 2:44:14 AM

Latest Report: Jun 30, 2016 at 2:00 AM


Visibility: 25 mi

Pressure: 30.01 "Hg (27.75 "Hg at 657m altitude)

Humidity: 88%

Dew Point: 54 °F

Location of Grande PrairieLocation

Past Weather in Grande Prairie — Graph

°F

Grande Prairie Temperature Yesterday

Maximum temperature yesterday: 81 °F (at 3:00 PM)
Minimum temperature yesterday: 54 °F (at 4:00 AM)
Average temperature yesterday: 66 °F

High & Low Weather Summary for the Past Weeks

 TemperatureHumidityPressure
High81 °F (Jun 28, 3:00 PM)94% (Jun 15, 1:00 AM)30.24 "Hg (Jun 15, 1:00 AM)
Low41 °F (Jun 15, 1:00 PM)26% (Jun 28, 3:00 PM)29.37 "Hg (Jun 15, 1:00 PM)
Average60 °F67%29.97 "Hg
* Reported Jun 15 1:00 AM — Jun 30 1:00 AM, Grande Prairie, Weather by CustomWeather, © 2016

Note: Actual official high and low records may vary slightly from our data, if they occured in-between our weather recording intervals... More about our weather records

Advertising

Grande Prairie Weather History for the Previous 24 Hours

Scroll right to see more
 ConditionsComfort  
Time TempWeatherWind HumidityBarometerVisibility
1:00 AM
Thu, Jun 30
59 °FPassing clouds.6 mph82%30.03 "Hg25 mi
12:00 AM63 °FPartly cloudy.5 mph77%30.04 "Hg25 mi
11:00 PM
Wed, Jun 29
61 °FPartly sunny.7 mph88%30.04 "Hg25 mi
10:00 PM68 °FBroken clouds.6 mph64%30.06 "Hg25 mi
9:00 PM70 °FPartly sunny.8 mph69%30.06 "Hg25 mi
8:00 PM72 °FBroken clouds.6 mph61%30.05 "Hg25 mi
7:00 PM73 °FBroken clouds.12 mph50%30.07 "Hg25 mi
6:00 PM66 °FThunderstorms. Partly sunny.14 mph68%30.10 "Hg20 mi
5:00 PM73 °FThunderstorms. Partly sunny.8 mph57%30.07 "Hg20 mi
4:00 PM79 °FBroken clouds.10 mph42%30.08 "Hg25 mi
3:00 PM81 °FBroken clouds.10 mph45%30.07 "Hg25 mi
2:00 PM79 °FScattered clouds.9 mph48%30.10 "Hg20 mi
1:00 PM77 °FScattered clouds.7 mph54%30.12 "Hg20 mi
12:00 PM73 °FPartly sunny.6 mph53%30.13 "Hg20 mi
11:00 AM72 °FPartly sunny.3 mph61%30.14 "Hg20 mi
10:00 AM64 °FScattered clouds.3 mph83%30.15 "Hg20 mi
9:00 AM64 °FScattered clouds.5 mph78%30.15 "Hg25 mi
8:00 AM61 °FPassing clouds.No wind83%30.15 "Hg25 mi
7:00 AM55 °FScattered clouds.5 mph94%30.16 "Hg20 mi
6:00 AM54 °FPassing clouds.2 mph88%30.17 "Hg25 mi
5:00 AM54 °FPassing clouds.5 mph88%30.15 "Hg25 mi
4:00 AM54 °FPassing clouds.5 mph88%30.15 "Hg25 mi
3:00 AM55 °FPassing clouds.2 mph94%30.15 "Hg25 mi
2:00 AM55 °FPassing clouds.6 mph88%30.15 "Hg25 mi
Weather by CustomWeather, © 2016

See weather overviewHow to use our weather pages